Flag for Germany Weather past 2 weeks in Mülheim, North Rhine-Westphalia, Germany

Now
63 °F

Clear.


Feels Like: 63 °F
Forecast: 60 / 75 °F
Wind: 6 mph from East

Location: Koeln / Bonn

Current Time: Aug 3, 2015 at 6:57:57 AM

Latest Report: Aug 3, 2015 at 5:50 AM


Visibility: 10 mi

Pressure: 30.01 "Hg

Humidity: 64%

Dew point: 50 °F

Location of MülheimLocation

Historic Weather in Mülheim — Graph

°F

Mülheim temperature yesterday

Maximum temperature yesterday: 81 °F (at 3:20 PM)
Minimum temperature yesterday: 50 °F (at 6:20 AM)
Average temperature yesterday: 68 °F

Past Weeks' High & Low Weather Summary

 TemperatureHumidityPressure
High81 °F (Jul 22, 4:50 PM)100% (Jul 31, 4:20 AM)30.15 "Hg (Jul 31, 4:20 AM)
Low48 °F (Jul 26, 3:50 AM)28% (Aug 1, 5:20 PM)29.56 "Hg (Jul 25, 6:50 AM)
Average64 °F69%29.91 "Hg
* Reported Jul 19 5:20 AM — Aug 3 5:50 AM, Mülheim, Weather by CustomWeather, © 2015

Note: Actual official high and low records may vary slightly from our data, if they occured in-between our weather recording intervals... More about our weather records

Advertising

Mülheim weather history for previous 24 hours

 ConditionsComfort  
Time TempWeatherWind HumidityBarometerVisibility
5:50 AM
Mon, Aug 3
63 °FClear.6 mph64%30.01 "Hg10 mi
5:20 AM63 °FClear.6 mph64%30.01 "Hg10 mi
4:50 AM61 °FClear.3 mph68%30.01 "Hg10 mi
4:20 AM61 °FClear.2 mph68%30.01 "Hg10 mi
3:50 AM59 °FClear.3 mph72%30.01 "Hg10 mi
3:20 AM61 °FClear.5 mph68%30.01 "Hg10 mi
2:50 AM64 °FClear.2 mph60%30.04 "Hg10 mi
2:20 AM66 °FClear.6 mph56%30.04 "Hg10 mi
1:50 AM66 °FClear.6 mph56%30.04 "Hg10 mi
1:20 AM66 °FClear.7 mph60%30.04 "Hg10 mi
12:50 AM66 °FClear.7 mph60%30.04 "Hg10 mi
12:20 AM68 °FClear.6 mph56%30.04 "Hg10 mi
11:50 PM
Sun, Aug 2
70 °FClear.6 mph53%30.04 "Hg10 mi
11:20 PM70 °FClear.8 mph53%30.04 "Hg10 mi
10:50 PM70 °FClear.9 mph53%30.04 "Hg10 mi
10:20 PM72 °FClear.9 mph50%30.04 "Hg10 mi
9:50 PM73 °FSunny.9 mph47%30.04 "Hg10 mi
9:20 PM73 °FSunny.8 mph47%30.04 "Hg10 mi
8:50 PM77 °FSunny.6 mph39%30.04 "Hg10 mi
8:20 PM79 °FSunny.6 mph37%30.04 "Hg10 mi
7:50 PM81 °FSunny.7 mph34%30.04 "Hg10 mi
7:20 PM81 °FSunny.7 mph32%30.04 "Hg10 mi
6:50 PM81 °FSunny.6 mph32%30.04 "Hg10 mi
6:20 PM81 °FSunny.6 mph30%30.07 "Hg10 mi
5:50 PM81 °FSunny.3 mph28%30.07 "Hg10 mi
5:20 PM81 °FSunny.3 mph30%30.07 "Hg10 mi
4:50 PM81 °FSunny.3 mph28%30.07 "Hg10 mi
4:20 PM81 °FSunny.6 mph30%30.07 "Hg10 mi
3:50 PM81 °FPassing clouds.5 mph30%30.09 "HgN/A
3:20 PM81 °FSunny.5 mph30%30.09 "Hg10 mi
2:50 PM79 °FPassing clouds.5 mph32%30.09 "HgN/A
2:20 PM79 °FPassing clouds.6 mph32%30.09 "HgN/A
1:50 PM79 °FSunny.3 mph34%30.12 "Hg10 mi
1:20 PM77 °FSunny.2 mph32%30.12 "Hg10 mi
12:50 PM75 °FPassing clouds.5 mph34%30.12 "HgN/A
12:20 PM75 °FSunny.5 mph34%30.12 "Hg10 mi
11:50 AM73 °FSunny.6 mph36%30.15 "Hg10 mi
11:20 AM72 °FSunny.3 mph47%30.15 "Hg10 mi
10:50 AM70 °FSunny.3 mph53%30.15 "Hg10 mi
10:20 AM68 °FSunny.2 mph56%30.15 "Hg10 mi
9:50 AM64 °FSunny.2 mph64%30.12 "Hg10 mi
9:20 AM63 °FSunny.2 mph73%30.12 "Hg10 mi
8:50 AM59 °FSunny.2 mph77%30.12 "Hg10 mi
8:20 AM57 °FSunny.3 mph82%30.12 "Hg10 mi
7:50 AM55 °FSunny.2 mph88%30.12 "Hg10 mi
7:20 AM52 °FSunny.2 mph94%30.12 "Hg10 mi
6:50 AM50 °FClear.1 mph88%30.12 "Hg10 mi
6:20 AM50 °FFog.2 mph88%30.12 "HgN/A
Weather by CustomWeather, © 2015

See weather overviewHow to use our weather pages